[[{"header":{"parameterUnit":"m.s-1","parameterCategory":1,"la1":30.2991,"la2":30.254,"lo1":-89.0895,"lo2":-89.0444,"dy":0.0017,"dx":0.0017,"nx":28,"ny":28,"refTime":"2023-09-19T09:00:00:Z","depth":0,"parameterNumber":2,"parameterNumberName":"U-component_of_WINDS"},"data":[0,0,0,0,0,0,0,0,0,0,0,0,0,0,0,0,0,0,0,0,0,0,0,0,0,0,0,0,0,0,0,0,0,0,0,0,0,0,0,0,0,0,0,0,0,0,0,0,0,0,0,0,0,0,0,0,0,0,-0.5333,-0.5334,0,-0.5392,-0.5393,-0.5394,-0.5402,-0.5401,-0.5401,-0.54,-0.5462,-0.5464,-0.5466,0,0,0,0,0,0,0,0,0,0,0,0,0,-0.523,-0.5232,-0.5333,-0.5334,-0.5335,-0.5392,-0.5393,-0.5394,-0.5402,-0.5401,-0.54,-0.54,-0.5461,-0.5464,-0.5467,0,0,0,0,0,0,0,0,0,0,0,0,0,-0.5281,-0.5233,-0.5333,-0.5346,-0.5347,-0.5392,-0.5393,-0.5394,-0.5402,-0.5401,-0.54,-0.5399,-0.5461,-0.5464,-0.5467,-0.5504,0,0,-0.5477,-0.5478,0,0,0,0,0,0,0,0,-0.5278,-0.5284,-0.5343,-0.5345,-0.5347,-0.5389,-0.5379,-0.5431,-0.5402,-0.5381,-0.54,-0.5399,-0.5439,-0.5444,-0.5457,-0.5507,-0.551,-0.5477,-0.5479,-0.5481,-0.5482,0,0,0,0,0,0,0,-0.5274,-0.5282,-0.5357,-0.5344,-0.5346,-0.5349,-0.5355,-0.5389,-0.5414,-0.5383,-0.5384,-0.539,-0.5439,-0.5453,-0.5458,-0.551,-0.5477,-0.548,-0.5482,-0.5483,-0.5596,-0.5596,0,0,0,0,0,0,-0.5268,-0.5279,-0.5355,-0.5358,-0.5309,-0.5352,-0.5359,-0.5376,-0.5414,-0.5418,-0.5391,-0.5391,-0.5448,-0.5454,-0.546,-0.5506,-0.5481,-0.5484,-0.5486,-0.5595,-0.5596,-0.5597,0,0,0,0,0,0,-0.5266,-0.5275,-0.5352,-0.5319,-0.5329,-0.5354,-0.5374,-0.5378,-0.5392,-0.542,-0.5424,-0.5401,-0.5448,-0.5456,-0.5493,-0.5508,-0.5485,-0.5488,-0.5593,-0.5595,-0.5596,-0.5598,0,0,0,0,0,0,-0.5263,-0.5274,-0.5287,-0.5319,-0.5331,-0.5383,-0.5375,-0.538,-0.5397,-0.5397,-0.543,-0.5435,-0.5448,-0.5488,-0.5496,-0.5512,-0.5491,-0.5592,-0.5594,-0.5596,-0.5597,-0.5599,-0.5602,0,0,0,0,0,-0.5259,-0.5286,-0.5288,-0.5297,-0.5348,-0.5384,-0.5391,-0.5405,-0.5398,-0.5412,-0.5431,-0.5433,-0.5506,-0.5492,-0.5501,-0.5519,-0.5591,-0.5593,-0.5596,-0.5595,-0.5599,-0.5602,0,0,0,0,0,0,-0.5255,-0.529,-0.5293,-0.533,-0.5354,-0.5385,-0.5403,-0.5408,-0.5435,-0.5433,-0.5451,-0.5458,-0.5495,-0.5511,-0.5495,-0.5557,-0.5548,-0.5552,-0.5545,-0.5548,-0.5551,-0.5545,-0.5493,0,0,0,0,0,-0.5259,-0.5284,-0.5314,-0.5344,-0.5356,-0.5378,-0.5394,-0.5403,-0.5429,-0.5439,-0.546,-0.5485,-0.5514,-0.5532,-0.556,-0.56,-0.5607,-0.5617,-0.5619,-0.5621,-0.5624,-0.5647,-0.5651,-0.5604,-0.5604,-0.5604,0,0,-0.5266,-0.5288,-0.5303,-0.5344,-0.5363,-0.539,-0.5386,-0.5415,-0.5435,-0.5443,-0.548,-0.5496,-0.5526,-0.5565,-0.5583,-0.5579,-0.5639,-0.5624,-0.5625,-0.5627,-0.565,-0.5654,-0.5658,-0.5606,-0.5606,-0.5605,0,0,-0.5293,-0.5312,-0.534,-0.536,-0.5389,-0.5404,-0.5411,-0.5442,-0.5453,-0.549,-0.5497,-0.5522,-0.5571,-0.5592,-0.5609,-0.5646,-0.565,-0.5655,-0.5668,-0.569,-0.5694,-0.5697,-0.571,-0.5715,-0.5658,-0.5658,-0.5658,0,-0.5298,-0.5338,-0.5353,-0.5382,-0.54,-0.5409,-0.5437,-0.5456,-0.5494,-0.5506,-0.5502,-0.5564,-0.5584,-0.5629,-0.5638,-0.5652,-0.566,-0.565,-0.5692,-0.5695,-0.5699,-0.5711,-0.5716,-0.5659,-0.5659,-0.5659,-0.5659,0,-0.5343,-0.5371,-0.539,-0.5426,-0.5446,-0.5474,-0.5495,-0.5514,-0.5522,-0.5538,-0.5576,-0.5601,-0.5635,-0.5646,-0.5654,-0.5692,-0.5689,-0.5688,-0.5679,-0.5703,-0.5715,-0.572,-0.5659,-0.5659,-0.5659,-0.5659,0,0,-0.5367,-0.5412,-0.5418,-0.5435,-0.5469,-0.5492,-0.5522,-0.5554,-0.557,-0.5596,-0.5622,-0.5664,-0.5664,-0.5683,-0.5694,-0.5714,-0.5742,-0.5711,-0.5712,-0.5715,-0.5785,-0.5785,-0.579,-0.5745,-0.5746,-0.5747,-0.5783,0,-0.5397,-0.5449,-0.5464,-0.5508,-0.5534,-0.5545,-0.5571,-0.5595,-0.5611,-0.5637,-0.5656,-0.5685,-0.5682,-0.5694,-0.5714,-0.5734,-0.5756,-0.5732,-0.577,-0.5771,-0.576,-0.5797,-0.5796,-0.5828,-0.5788,-0.5789,-0.5789,0,-0.5439,-0.5465,-0.5512,-0.5544,-0.5555,-0.5578,-0.561,-0.5634,-0.5663,-0.5673,-0.5696,-0.5706,-0.5738,-0.5729,-0.5775,-0.5758,-0.5775,-0.5787,-0.5789,-0.5792,-0.578,-0.58,-0.5839,-0.5843,-0.5797,-0.5796,-0.5796,0,-0.5451,-0.5499,-0.5532,-0.5547,-0.5585,-0.5601,-0.5618,-0.5646,-0.5664,-0.5693,-0.5705,-0.5738,-0.5755,-0.578,-0.5799,-0.579,-0.5843,-0.5835,-0.5853,-0.5853,-0.5862,-0.5861,-0.5904,-0.5875,-0.5875,-0.5875,-0.5875,0,-0.5482,-0.551,-0.5538,-0.5559,-0.5591,-0.561,-0.5641,-0.5659,-0.5684,-0.5709,-0.5721,-0.5745,-0.5769,-0.5796,-0.5811,-0.5847,-0.5855,-0.5865,-0.5868,-0.5863,-0.5862,-0.5873,-0.5871,-0.5876,-0.5876,-0.5876,-0.5875,0,-0.55,-0.552,-0.5558,-0.5591,-0.56,-0.5622,-0.5652,-0.5673,-0.569,-0.5722,-0.5731,-0.5758,-0.5791,-0.5813,-0.5855,-0.5866,-0.5904,-0.5908,-0.5894,-0.5896,-0.5912,-0.591,-0.5962,-0.597,-0.5937,-0.5938,-0.5938,0,-0.5518,-0.5539,-0.5575,-0.5593,-0.5609,-0.5638,-0.5657,-0.5677,-0.5697,-0.5732,-0.575,-0.5783,-0.5811,-0.5864,-0.5888,-0.5921,-0.5925,-0.5941,-0.593,-0.5924,-0.5924,-0.5922,-0.5925,-0.5942,-0.5942,-0.5943,-0.5943,0,-0.5547,-0.5557,-0.5584,-0.5615,-0.5637,-0.5663,-0.5689,-0.5703,-0.5728,-0.575,-0.5783,-0.5805,-0.5848,-0.5882,-0.5917,-0.5936,-0.5944,-0.5947,-0.5952,-0.5946,-0.5937,-0.5942,-0.5898,-0.5945,-0.5945,-0.5944,-0.5944,-0.5944,-0.5566,-0.5585,-0.5614,-0.5644,-0.5665,-0.5689,-0.5711,-0.5731,-0.5759,-0.5795,-0.5806,-0.5841,-0.5872,-0.592,-0.594,-0.5968,-0.5967,-0.5975,-0.5977,-0.5979,-0.5978,-0.5934,-0.5975,-0.5975,-0.5975,-0.5975,-0.5975,0,-0.5595,-0.5614,-0.5642,-0.5677,-0.5701,-0.5707,-0.5736,-0.5756,-0.5786,-0.5813,-0.5841,-0.588,-0.5913,-0.5941,-0.5975,-0.5993,-0.5998,-0.6002,-0.6,-0.6004,-0.5978,-0.5969,-0.5997,-0.5997,-0.5997,-0.5997,-0.5997,-0.5997,-0.5613,-0.5647,-0.566,-0.5705,-0.5725,-0.5758,-0.5774,-0.5797,-0.5819,-0.5862,-0.5889,-0.5907,-0.5935,-0.5972,-0.6003,-0.6011,-0.6023,-0.6026,-0.6034,-0.6008,-0.6006,-0.6003,-0.5995,-0.6028,-0.6028,-0.6057,-0.6058,-0.6058]},{"header":{"parameterUnit":"m.s-1","parameterCategory":1,"la1":30.2991,"la2":30.254,"lo1":-89.0895,"lo2":-89.0444,"dy":0.0017,"dx":0.0017,"nx":28,"ny":28,"refTime":"2023-09-19T09:00:00:Z","depth":0,"parameterNumber":3,"parameterNumberName":"V-component_of_WINDS"},"data":[0,0,0,0,0,0,0,0,0,0,0,0,0,0,0,0,0,0,0,0,0,0,0,0,0,0,0,0,0,0,0,0,0,0,0,0,0,0,0,0,0,0,0,0,0,0,0,0,0,0,0,0,0,0,0,0,0,0,2.076,2.0761,0,2.0795,2.0796,2.0796,2.0862,2.0863,2.0864,2.0866,2.0898,2.0898,2.0897,0,0,0,0,0,0,0,0,0,0,0,0,0,2.0748,2.0748,2.076,2.0761,2.0761,2.0795,2.0796,2.0796,2.0862,2.0863,2.0865,2.0866,2.0898,2.0898,2.0897,0,0,0,0,0,0,0,0,0,0,0,0,0,2.0765,2.0748,2.076,2.0798,2.0802,2.0795,2.0796,2.0796,2.0861,2.0863,2.0865,2.0867,2.0898,2.0898,2.0897,2.0855,0,0,2.0896,2.0895,0,0,0,0,0,0,0,0,2.0764,2.0765,2.0792,2.0796,2.08,2.0826,2.0803,2.0816,2.0861,2.0839,2.0866,2.0868,2.0872,2.0874,2.0876,2.0857,2.0858,2.0896,2.0895,2.0895,2.0895,0,0,0,0,0,0,0,2.0763,2.0764,2.0774,2.0792,2.0797,2.0812,2.0817,2.0806,2.0844,2.0841,2.0846,2.0849,2.0875,2.0877,2.0877,2.0859,2.0896,2.0895,2.0895,2.0895,2.0805,2.0803,0,0,0,0,0,0,2.0756,2.0763,2.0773,2.0775,2.0786,2.0811,2.0816,2.0816,2.0844,2.0851,2.0847,2.0852,2.0876,2.0878,2.0879,2.083,2.0895,2.0895,2.0894,2.0807,2.0805,2.0802,0,0,0,0,0,0,2.0756,2.0757,2.0772,2.077,2.0773,2.0809,2.0808,2.0815,2.0817,2.0849,2.0856,2.0842,2.0878,2.088,2.0861,2.0832,2.0894,2.0894,2.081,2.0806,2.0804,2.0733,0,0,0,0,0,0,2.0755,2.0756,2.0741,2.077,2.0773,2.0753,2.0807,2.0815,2.0817,2.0823,2.0846,2.0852,2.088,2.0861,2.086,2.0833,2.0894,2.0812,2.0808,2.0804,2.0738,2.0728,2.072,0,0,0,0,0,2.0755,2.072,2.074,2.0741,2.0756,2.0752,2.0754,2.0787,2.0814,2.0799,2.0819,2.0851,2.0836,2.0858,2.0858,2.083,2.0814,2.0809,2.0805,2.0742,2.073,2.072,0,0,0,0,0,0,2.0686,2.0724,2.0747,2.0721,2.0732,2.0763,2.0744,2.0773,2.0777,2.0782,2.0823,2.0827,2.0802,2.0815,2.0839,2.079,2.083,2.0825,2.0783,2.0771,2.0762,2.0759,2.0893,0,0,0,0,0,2.0668,2.0663,2.0696,2.0669,2.0674,2.0708,2.0708,2.0732,2.0746,2.0751,2.077,2.0781,2.0779,2.0776,2.0776,2.0741,2.0746,2.0722,2.0712,2.0705,2.0699,2.068,2.0669,2.0787,2.0787,2.0787,0,0,2.063,2.0651,2.0645,2.0656,2.0668,2.066,2.0712,2.0702,2.0696,2.0749,2.0732,2.0747,2.0761,2.0734,2.0723,2.0743,2.0668,2.0699,2.0692,2.0691,2.0674,2.0663,2.0653,2.0784,2.0785,2.0785,0,0,2.0557,2.0573,2.0552,2.0563,2.0581,2.0604,2.0599,2.0625,2.0637,2.0621,2.066,2.0653,2.0649,2.0657,2.0661,2.0591,2.062,2.059,2.054,2.0521,2.0512,2.0504,2.0477,2.0467,2.0585,2.0585,2.0585,0,2.0508,2.0499,2.0537,2.0524,2.0527,2.0576,2.0554,2.0563,2.0579,2.058,2.0604,2.0598,2.0612,2.0586,2.0569,2.0571,2.0565,2.0586,2.051,2.0503,2.0496,2.047,2.0461,2.0581,2.0581,2.0582,2.0582,0,2.0436,2.0429,2.041,2.0425,2.0426,2.0409,2.0443,2.044,2.0465,2.0484,2.0467,2.0485,2.0488,2.0485,2.0509,2.0462,2.0474,2.0503,2.0544,2.048,2.0457,2.0448,2.0575,2.0577,2.0578,2.0579,0,0,2.032,2.0357,2.0349,2.0356,2.0379,2.0374,2.0359,2.0363,2.0358,2.0368,2.0355,2.035,2.0377,2.0381,2.0407,2.039,2.0331,2.0421,2.0422,2.0402,2.0279,2.0256,2.0244,2.0352,2.035,2.0349,2.0277,0,2.025,2.0226,2.026,2.0228,2.0221,2.0268,2.0254,2.0266,2.0285,2.0281,2.0301,2.0296,2.0333,2.0336,2.0322,2.0341,2.0307,2.0347,2.0338,2.0337,2.0331,2.0232,2.0208,2.0139,2.0269,2.0267,2.0266,0,2.0166,2.0172,2.0139,2.0164,2.0163,2.015,2.0156,2.0152,2.0167,2.0181,2.0186,2.0216,2.0201,2.0242,2.0221,2.0248,2.0246,2.0255,2.0254,2.0252,2.0296,2.0226,2.0118,2.0107,2.0253,2.0254,2.0255,0,2.0081,2.0082,2.0062,2.0067,2.0096,2.0086,2.0097,2.0114,2.0114,2.0119,2.012,2.0123,2.0124,2.0125,2.0155,2.0182,2.013,2.0174,2.014,2.0139,2.0125,2.0125,2.0013,2.0127,2.0127,2.0128,2.0128,0,1.9999,1.9977,2.0025,2.0012,1.9988,2.0027,2.0002,2.0018,2.0032,2.0023,2.0064,2.0054,2.0095,2.0089,2.0113,2.0091,2.0092,2.0102,2.0108,2.0097,2.0095,2.0095,2.0099,2.0125,2.0125,2.0126,2.0126,0,1.99,1.9932,1.9913,1.9942,1.9949,1.993,1.9954,1.9943,1.9965,1.9952,1.9952,1.9984,1.998,2.001,2.0011,2.0027,1.9993,2.0008,1.9988,1.9992,1.9956,1.9958,1.9838,1.9823,1.9948,1.9947,1.9946,0,1.9845,1.9829,1.9856,1.9853,1.9863,1.9858,1.9858,1.9896,1.9895,1.991,1.9897,1.9896,1.9896,1.9886,1.9909,1.991,1.9924,1.9882,1.9924,1.9913,1.9921,1.9921,1.9919,1.9872,1.9871,1.987,1.9869,0,1.9742,1.9758,1.9758,1.9763,1.9763,1.9768,1.9776,1.9771,1.9812,1.9808,1.9805,1.9805,1.9806,1.9804,1.9809,1.9819,1.985,1.9856,1.9847,1.9835,1.9823,1.9827,1.9961,1.9858,1.9859,1.9859,1.986,1.9861,1.9662,1.9649,1.9667,1.9665,1.9675,1.9682,1.9672,1.9693,1.9691,1.9695,1.9717,1.9709,1.9723,1.9733,1.9741,1.9734,1.9754,1.9742,1.9739,1.9735,1.9728,1.9826,1.9735,1.9735,1.9736,1.9736,1.9736,0,1.956,1.9573,1.9571,1.9582,1.958,1.9611,1.9621,1.9617,1.9609,1.9621,1.9621,1.9615,1.9613,1.9637,1.9637,1.9627,1.9641,1.9625,1.9626,1.9627,1.9711,1.9717,1.9614,1.9614,1.9614,1.9614,1.9614,1.9614,1.9506,1.9486,1.9504,1.9489,1.9503,1.9496,1.9499,1.9505,1.9514,1.9506,1.9505,1.9521,1.9536,1.9538,1.9537,1.9544,1.9542,1.9521,1.9532,1.961,1.9621,1.9633,1.9639,1.9521,1.952,1.9449,1.9448,1.9448]}]]